Satellite-Ground Cal/Val Site Overpasses Predictions

Prediction of Satellite NPP Overpassing Cal/Val Site: Antarctic Dome C

Ground Cal/Val Site Location: Latitude: -75.10, Longitude: 123.35; Satellite-Ground Site NADIR distance within 100 km.

Table of predicted overpasses for the next 14.0 days since TLE Epoch: 2/28/2020
Interval Starting Time Ending Time Minimum Distance Time Minimum Distance (km)
1 02/29/2020 14:41:59 02/29/2020 14:42:24 02/29/2020 14:42:11 51.41
2 03/01/2020 07:43:39 03/01/2020 07:44:00 03/01/2020 07:43:49 70.82
3 03/02/2020 07:24:47 03/02/2020 07:25:15 03/02/2020 07:25:01 37.13
4 03/04/2020 15:07:15 03/04/2020 15:07:22 03/04/2020 15:07:19 95.62
5 03/05/2020 14:48:14 03/05/2020 14:48:43 03/05/2020 14:48:28 15.70
6 03/07/2020 07:31:05 03/07/2020 07:31:34 03/07/2020 07:31:19 1.15
7 03/10/2020 14:54:32 03/10/2020 14:55:01 03/10/2020 14:54:46 21.05
8 03/11/2020 14:35:51 03/11/2020 14:36:05 03/11/2020 14:35:58 85.98
9 03/12/2020 07:37:22 03/12/2020 07:37:50 03/12/2020 07:37:36 35.83


NCC Satellite Cal/Val Overpasses Prediction Service
